TimeCST,TemperatureF,Dew PointF,Humidity,Sea Level PressureIn,VisibilityMPH,Wind Direction,Wind SpeedMPH,Gust SpeedMPH,PrecipitationIn,Events,Conditions,WindDirDegrees,DateUTC
12:15 AM,17.6,3.2,53,30.15,10.0,SSE,9.2,-,N/A,,Clear,160,2014-02-03 06:15:00
12:35 AM,15.8,3.2,58,30.15,10.0,SSE,8.1,-,N/A,,Clear,150,2014-02-03 06:35:00
12:55 AM,15.8,3.2,58,30.13,10.0,SSE,6.9,-,N/A,,Clear,160,2014-02-03 06:55:00
1:15 AM,17.6,3.2,53,30.13,10.0,SSE,8.1,-,N/A,,Clear,150,2014-02-03 07:15:00
1:35 AM,15.8,3.2,58,30.12,10.0,SSE,8.1,-,N/A,,Clear,150,2014-02-03 07:35:00
1:55 AM,17.6,5.0,58,30.12,10.0,SSE,8.1,-,N/A,,Clear,150,2014-02-03 07:55:00
2:15 AM,15.8,1.4,53,30.11,10.0,SE,8.1,-,N/A,,Clear,140,2014-02-03 08:15:00
2:35 AM,15.8,3.2,58,30.09,10.0,SE,9.2,-,N/A,,Clear,130,2014-02-03 08:35:00
2:55 AM,15.8,3.2,58,30.09,10.0,SE,10.4,-,N/A,,Clear,140,2014-02-03 08:55:00
3:15 AM,15.8,3.2,58,30.09,10.0,SSE,6.9,-,N/A,,Clear,150,2014-02-03 09:15:00
3:35 AM,15.8,3.2,58,30.09,10.0,SSE,5.8,-,N/A,,Clear,150,2014-02-03 09:35:00
3:55 AM,15.8,5.0,62,30.08,10.0,SE,6.9,-,N/A,,Clear,140,2014-02-03 09:55:00
4:15 AM,15.8,3.2,58,30.07,10.0,SSE,8.1,-,N/A,,Clear,150,2014-02-03 10:15:00
4:35 AM,17.6,6.8,63,30.08,10.0,SSE,8.1,-,N/A,,Clear,150,2014-02-03 10:35:00
4:55 AM,17.6,6.8,63,30.06,10.0,SSE,10.4,-,N/A,,Clear,150,2014-02-03 10:55:00
5:15 AM,19.4,8.6,63,30.05,10.0,SSE,11.5,-,N/A,,Clear,150,2014-02-03 11:15:00
5:35 AM,19.4,8.6,63,30.05,10.0,SSE,10.4,-,N/A,,Clear,150,2014-02-03 11:35:00
5:55 AM,19.4,10.4,68,30.04,10.0,SSE,10.4,-,N/A,,Clear,150,2014-02-03 11:55:00
6:15 AM,19.4,10.4,68,30.05,10.0,SSE,11.5,-,N/A,,Clear,160,2014-02-03 12:15:00
6:35 AM,19.4,10.4,68,30.04,10.0,SSE,11.5,-,N/A,,Clear,160,2014-02-03 12:35:00
6:55 AM,21.2,12.2,68,30.04,10.0,SSE,13.8,-,N/A,,Clear,160,2014-02-03 12:55:00
7:15 AM,21.2,12.2,68,30.03,10.0,SSE,13.8,-,N/A,,Clear,160,2014-02-03 13:15:00
7:35 AM,23.0,12.2,63,30.03,10.0,SSE,16.1,-,N/A,,Clear,160,2014-02-03 13:35:00
7:55 AM,23.0,12.2,63,30.04,10.0,SSE,16.1,23.0,N/A,,Scattered Clouds,160,2014-02-03 13:55:00
8:15 AM,24.8,14.0,64,30.05,10.0,SSE,18.4,-,N/A,,Overcast,160,2014-02-03 14:15:00
8:35 AM,24.8,14.0,64,30.05,10.0,SSE,15.0,-,N/A,,Overcast,160,2014-02-03 14:35:00
8:55 AM,24.8,14.0,64,30.04,10.0,SSE,19.6,-,N/A,,Overcast,150,2014-02-03 14:55:00
9:15 AM,26.6,15.8,64,30.05,10.0,SSE,17.3,-,N/A,,Overcast,150,2014-02-03 15:15:00
9:35 AM,26.6,15.8,64,30.05,10.0,SSE,18.4,21.9,N/A,,Overcast,150,2014-02-03 15:35:00
9:55 AM,26.6,15.8,64,30.05,10.0,SSE,19.6,-,N/A,,Overcast,150,2014-02-03 15:55:00
10:15 AM,26.6,15.8,64,30.04,10.0,SE,16.1,23.0,N/A,,Overcast,140,2014-02-03 16:15:00
10:35 AM,28.4,17.6,64,30.04,10.0,SE,17.3,-,N/A,,Overcast,140,2014-02-03 16:35:00
10:55 AM,28.4,17.6,64,30.04,10.0,SSE,20.7,25.3,N/A,,Overcast,150,2014-02-03 16:55:00
11:15 AM,30.2,19.4,64,30.02,10.0,SSE,24.2,29.9,N/A,,Overcast,150,2014-02-03 17:15:00
11:35 AM,33.8,21.2,60,30.01,10.0,SSE,24.2,32.2,N/A,,Overcast,150,2014-02-03 17:35:00
11:55 AM,33.8,21.2,60,30.01,10.0,SSE,20.7,25.3,N/A,,Overcast,160,2014-02-03 17:55:00
12:15 PM,33.8,21.2,60,30.00,10.0,SSE,21.9,28.8,N/A,,Overcast,160,2014-02-03 18:15:00
12:35 PM,35.6,24.8,65,29.99,10.0,SSE,25.3,31.1,N/A,,Overcast,160,2014-02-03 18:35:00
12:55 PM,35.6,24.8,65,29.98,10.0,SSE,21.9,26.5,N/A,,Overcast,160,2014-02-03 18:55:00
1:15 PM,35.6,24.8,65,29.96,10.0,SSE,19.6,-,N/A,,Overcast,150,2014-02-03 19:15:00
1:35 PM,37.4,24.8,60,29.95,10.0,SSE,20.7,-,N/A,,Overcast,160,2014-02-03 19:35:00
1:55 PM,37.4,24.8,60,29.93,10.0,SSE,18.4,-,N/A,,Overcast,160,2014-02-03 19:55:00
2:15 PM,37.4,26.6,65,29.93,10.0,South,18.4,-,N/A,,Overcast,170,2014-02-03 20:15:00
2:35 PM,39.2,26.6,61,29.92,10.0,South,17.3,23.0,N/A,,Overcast,170,2014-02-03 20:35:00
2:55 PM,39.2,26.6,61,29.91,10.0,SSE,20.7,-,N/A,,Overcast,160,2014-02-03 20:55:00
3:15 PM,39.2,26.6,61,29.91,10.0,SSE,19.6,-,N/A,,Overcast,160,2014-02-03 21:15:00
3:35 PM,39.2,26.6,61,29.90,10.0,SSE,19.6,-,N/A,,Overcast,150,2014-02-03 21:35:00
3:55 PM,41.0,26.6,57,29.90,10.0,SSE,17.3,-,N/A,,Mostly Cloudy,150,2014-02-03 21:55:00
4:15 PM,42.8,26.6,53,29.90,10.0,South,18.4,-,N/A,,Mostly Cloudy,170,2014-02-03 22:15:00
4:35 PM,39.2,24.8,56,29.90,10.0,SSE,16.1,-,N/A,,Partly Cloudy,150,2014-02-03 22:35:00
4:55 PM,39.2,24.8,56,29.89,10.0,SE,15.0,21.9,N/A,,Clear,140,2014-02-03 22:55:00
5:15 PM,39.2,24.8,56,29.89,10.0,SE,11.5,-,N/A,,Clear,140,2014-02-03 23:15:00
5:35 PM,37.4,24.8,60,29.88,10.0,SE,13.8,19.6,N/A,,Clear,130,2014-02-03 23:35:00
5:55 PM,35.6,21.2,56,29.88,10.0,ESE,12.7,-,N/A,,Clear,110,2014-02-03 23:55:00
6:15 PM,35.6,21.2,56,29.88,10.0,ESE,16.1,-,N/A,,Clear,120,2014-02-04 00:15:00
6:35 PM,33.8,19.4,56,29.90,10.0,ESE,13.8,-,N/A,,Clear,110,2014-02-04 00:35:00
6:55 PM,32.0,19.4,60,29.90,10.0,ESE,13.8,20.7,N/A,,Clear,110,2014-02-04 00:55:00
7:15 PM,30.2,19.4,64,29.90,10.0,ESE,15.0,-,N/A,,Clear,120,2014-02-04 01:15:00
7:35 PM,30.2,19.4,64,29.90,10.0,ESE,17.3,-,N/A,,Clear,120,2014-02-04 01:35:00
7:55 PM,30.2,19.4,64,29.91,10.0,ESE,15.0,-,N/A,,Clear,110,2014-02-04 01:55:00
8:15 PM,30.2,19.4,64,29.90,10.0,East,16.1,-,N/A,,Clear,100,2014-02-04 02:15:00
8:35 PM,30.2,19.4,64,29.91,10.0,ESE,13.8,-,N/A,,Clear,110,2014-02-04 02:35:00
8:55 PM,30.2,21.2,69,29.91,10.0,ESE,13.8,-,N/A,,Scattered Clouds,110,2014-02-04 02:55:00
9:15 PM,30.2,21.2,69,29.92,10.0,ESE,10.4,-,N/A,,Overcast,110,2014-02-04 03:15:00
9:35 PM,30.2,21.2,69,29.93,10.0,ESE,11.5,-,N/A,,Overcast,110,2014-02-04 03:35:00
9:55 PM,30.2,21.2,69,29.93,10.0,ESE,11.5,-,N/A,,Overcast,110,2014-02-04 03:55:00
10:15 PM,30.2,21.2,69,29.93,10.0,ESE,11.5,-,N/A,,Overcast,110,2014-02-04 04:15:00
10:35 PM,30.2,19.4,64,29.93,10.0,ESE,11.5,-,N/A,,Overcast,110,2014-02-04 04:35:00
10:55 PM,30.2,21.2,69,29.93,10.0,SE,12.7,-,N/A,,Overcast,130,2014-02-04 04:55:00
11:15 PM,30.2,21.2,69,29.93,10.0,ESE,11.5,-,N/A,,Overcast,120,2014-02-04 05:15:00
11:35 PM,30.2,21.2,69,29.92,10.0,ESE,15.0,-,N/A,,Overcast,120,2014-02-04 05:35:00
11:55 PM,30.2,21.2,69,29.93,10.0,ESE,9.2,-,N/A,,Overcast,110,2014-02-04 05:55:00